Datetime-UTC, Datetime-J2000, North, East, Up
2024/03/24 00:00:00, 764510400.00, 0.000000, 0.000000, 0.000000
2024/03/24 00:05:00, 764510700.00, 0.007900, 0.006100, -0.009100
2024/03/24 00:10:00, 764511000.00, 0.003500, 0.002600, 0.001400
2024/03/24 00:15:00, 764511300.00, 0.012400, 0.003300, -0.048900
2024/03/24 00:20:00, 764511600.00, 0.013900, 0.001500, -0.029400
2024/03/24 00:25:00, 764511900.00, 0.011000, 0.016700, -0.068300
2024/03/24 00:30:00, 764512200.00, 0.013900, 0.017900, -0.099100
2024/03/24 00:35:00, 764512500.00, 0.008900, 0.013200, -0.069600
2024/03/24 00:40:00, 764512800.00, -0.000200, 0.003900, -0.076500
2024/03/24 00:45:00, 764513100.00, 0.012000, 0.021300, -0.069900
2024/03/24 00:50:00, 764513400.00, 0.011500, 0.018000, -0.071300
2024/03/24 00:55:00, 764513700.00, 0.010900, 0.031200, -0.082300
2024/03/24 01:00:00, 764514000.00, 0.008100, 0.032900, -0.060200
2024/03/24 01:05:00, 764514300.00, 0.007300, 0.015600, -0.080000
2024/03/24 01:10:00, 764514600.00, 0.020100, 0.020600, -0.062100
2024/03/24 01:15:00, 764514900.00, 0.014100, 0.029200, -0.069700
2024/03/24 01:20:00, 764515200.00, 0.008900, 0.028000, -0.075700
2024/03/24 01:25:00, 764515500.00, 0.017500, 0.024500, -0.065300
2024/03/24 01:30:00, 764515800.00, 0.016800, 0.026000, -0.080700
2024/03/24 01:35:00, 764516100.00, 0.011900, 0.031800, -0.104800
2024/03/24 01:40:00, 764516400.00, 0.026600, 0.030900, -0.076300
2024/03/24 01:45:00, 764516700.00, 0.007600, 0.018200, -0.073900
2024/03/24 01:50:00, 764517000.00, 0.023600, 0.026100, -0.071400
2024/03/24 01:55:00, 764517300.00, 0.017000, 0.030300, -0.082200
2024/03/24 02:00:00, 764517600.00, 0.018800, 0.038600, -0.097900
2024/03/24 02:05:00, 764517900.00, 0.020800, 0.032400, -0.089500
2024/03/24 02:10:00, 764518200.00, 0.029100, 0.033200, -0.065400
2024/03/24 02:15:00, 764518500.00, 0.018500, 0.034900, -0.059900
2024/03/24 02:20:00, 764518800.00, 0.011300, 0.035200, -0.072700
2024/03/24 02:25:00, 764519100.00, 0.028000, 0.038200, -0.063900
2024/03/24 02:30:00, 764519400.00, 0.015000, 0.034100, -0.066300
2024/03/24 02:35:00, 764519700.00, 0.016600, 0.030300, -0.065300
2024/03/24 02:40:00, 764520000.00, 0.013100, 0.036700, -0.072300
2024/03/24 02:45:00, 764520300.00, 0.017500, 0.039800, -0.076600
2024/03/24 02:50:00, 764520600.00, 0.014500, 0.036800, -0.077500
2024/03/24 02:55:00, 764520900.00, 0.026100, 0.039700, -0.085500
2024/03/24 03:00:00, 764521200.00, 0.017100, 0.034900, -0.102600
2024/03/24 03:05:00, 764521500.00, 0.024900, 0.032300, -0.083300
2024/03/24 03:10:00, 764521800.00, 0.016200, 0.036600, -0.092900
2024/03/24 03:15:00, 764522100.00, 0.020000, 0.033400, -0.087700
2024/03/24 03:20:00, 764522400.00, 0.020400, 0.040200, -0.104900
2024/03/24 03:25:00, 764522700.00, 0.011200, 0.035200, -0.091300
2024/03/24 03:30:00, 764523000.00, 0.019300, 0.040900, -0.079900
2024/03/24 03:35:00, 764523300.00, 0.022700, 0.034400, -0.104900
2024/03/24 03:40:00, 764523600.00, 0.022700, 0.041100, -0.087700
2024/03/24 03:45:00, 764523900.00, 0.016500, 0.025500, -0.107600
2024/03/24 03:50:00, 764524200.00, 0.022400, 0.029400, -0.098200
2024/03/24 03:55:00, 764524500.00, 0.024700, 0.035300, -0.088000
2024/03/24 04:00:00, 764524800.00, 0.023900, 0.036700, -0.090000
2024/03/24 04:05:00, 764525100.00, 0.020900, 0.029600, -0.075200
2024/03/24 04:10:00, 764525400.00, 0.019200, 0.031600, -0.093800
2024/03/24 04:15:00, 764525700.00, 0.014600, 0.035200, -0.074100
2024/03/24 04:20:00, 764526000.00, 0.010600, 0.028600, -0.097500
2024/03/24 04:25:00, 764526300.00, 0.017500, 0.027800, -0.084800
2024/03/24 04:30:00, 764526600.00, 0.014500, 0.034000, -0.052000
2024/03/24 04:35:00, 764526900.00, 0.019500, 0.019400, -0.089000
2024/03/24 04:40:00, 764527200.00, 0.011900, 0.034000, -0.052500
2024/03/24 04:45:00, 764527500.00, 0.020100, 0.031200, -0.069200
2024/03/24 04:50:00, 764527800.00, 0.019100, 0.024600, -0.075700
2024/03/24 04:55:00, 764528100.00, 0.023000, 0.029200, -0.063400
2024/03/24 05:00:00, 764528400.00, 0.031600, 0.028000, -0.079200
2024/03/24 05:05:00, 764528700.00, 0.030900, 0.031400, -0.047600
2024/03/24 05:10:00, 764529000.00, 0.030100, 0.031900, -0.100300
2024/03/24 05:15:00, 764529300.00, 0.036400, 0.031300, -0.102900
2024/03/24 05:20:00, 764529600.00, 0.020800, 0.035000, -0.090100
2024/03/24 05:25:00, 764529900.00, 0.017100, 0.046500, -0.087900
2024/03/24 05:30:00, 764530200.00, -0.000600, 0.048000, -0.100300
2024/03/24 05:35:00, 764530500.00, 0.004800, 0.053400, -0.091100
2024/03/24 05:40:00, 764530800.00, 0.004900, 0.046600, -0.103500
2024/03/24 05:45:00, 764531100.00, 0.015000, 0.039000, -0.098000
2024/03/24 05:50:00, 764531400.00, 0.010100, 0.044900, -0.086800
2024/03/24 05:55:00, 764531700.00, 0.009900, 0.040300, -0.075900
2024/03/24 06:00:00, 764532000.00, 0.011600, 0.046900, -0.061400
2024/03/24 06:05:00, 764532300.00, 0.005900, 0.049200, -0.076900
2024/03/24 06:10:00, 764532600.00, 0.020700, 0.044000, -0.074100
2024/03/24 06:15:00, 764532900.00, 0.027600, 0.051500, -0.088300
2024/03/24 06:20:00, 764533200.00, 0.023300, 0.044700, -0.065000
2024/03/24 06:25:00, 764533500.00, 0.025600, 0.044700, -0.078000
2024/03/24 06:30:00, 764533800.00, 0.025000, 0.043400, -0.060500
2024/03/24 06:35:00, 764534100.00, 0.031100, 0.039100, -0.061200
2024/03/24 06:40:00, 764534400.00, 0.031500, 0.032600, -0.078200
2024/03/24 06:45:00, 764534700.00, 0.033600, 0.044600, -0.096700
2024/03/24 06:50:00, 764535000.00, 0.026500, 0.041200, -0.124100
2024/03/24 06:55:00, 764535300.00, 0.034600, 0.042300, -0.132200
2024/03/24 07:00:00, 764535600.00, 0.033700, 0.047100, -0.106100
2024/03/24 07:05:00, 764535900.00, 0.042100, 0.033500, -0.117500
2024/03/24 07:10:00, 764536200.00, 0.029600, 0.034400, -0.074400
2024/03/24 07:15:00, 764536500.00, 0.031300, 0.041600, -0.033400
2024/03/24 07:20:00, 764536800.00, 0.024300, 0.033900, -0.086800
2024/03/24 07:25:00, 764537100.00, 0.018300, 0.032500, -0.084800
2024/03/24 07:30:00, 764537400.00, 0.023100, 0.034900, -0.085500
2024/03/24 07:35:00, 764537700.00, 0.024200, 0.032100, -0.061800
2024/03/24 07:40:00, 764538000.00, 0.009900, 0.026600, -0.087900
2024/03/24 07:45:00, 764538300.00, 0.011700, 0.031000, -0.092700
2024/03/24 07:50:00, 764538600.00, 0.006700, 0.032200, -0.100200
2024/03/24 07:55:00, 764538900.00, 0.019400, 0.034200, -0.045600
2024/03/24 08:00:00, 764539200.00, 0.011800, 0.040100, -0.088600
2024/03/24 08:05:00, 764539500.00, 0.026400, 0.031900, -0.081900
2024/03/24 08:10:00, 764539800.00, 0.031300, 0.035300, -0.074600
2024/03/24 08:15:00, 764540100.00, 0.026700, 0.041900, -0.069900
2024/03/24 08:20:00, 764540400.00, 0.025300, 0.046000, -0.068700
2024/03/24 08:25:00, 764540700.00, 0.007600, 0.041300, -0.107300
2024/03/24 08:30:00, 764541000.00, 0.016500, 0.036000, -0.103600
2024/03/24 08:35:00, 764541300.00, 0.021800, 0.036600, -0.082900
2024/03/24 08:40:00, 764541600.00, 0.011100, 0.043500, -0.097600
2024/03/24 08:45:00, 764541900.00, 0.021100, 0.040700, -0.090100
2024/03/24 08:50:00, 764542200.00, 0.020900, 0.043200, -0.076400
2024/03/24 08:55:00, 764542500.00, 0.022700, 0.040500, -0.076000
2024/03/24 09:00:00, 764542800.00, 0.019400, 0.044100, -0.062700
2024/03/24 09:05:00, 764543100.00, 0.018900, 0.040500, -0.080900
2024/03/24 09:10:00, 764543400.00, 0.012100, 0.043800, -0.059700
2024/03/24 09:15:00, 764543700.00, 0.010900, 0.043600, -0.069200
2024/03/24 09:20:00, 764544000.00, 0.023300, 0.046100, -0.077400
2024/03/24 09:25:00, 764544300.00, 0.027200, 0.047800, -0.087400
2024/03/24 09:30:00, 764544600.00, 0.021300, 0.057600, -0.101000
2024/03/24 09:35:00, 764544900.00, 0.036600, 0.050500, -0.117400
2024/03/24 09:40:00, 764545200.00, 0.026900, 0.046500, -0.114300
2024/03/24 09:45:00, 764545500.00, 0.011700, 0.049900, -0.098300
2024/03/24 09:50:00, 764545800.00, 0.023800, 0.047700, -0.112400
2024/03/24 09:55:00, 764546100.00, 0.028500, 0.048800, -0.088000
2024/03/24 10:00:00, 764546400.00, 0.029000, 0.052000, -0.097900
2024/03/24 10:05:00, 764546700.00, 0.015700, 0.045600, -0.095400
2024/03/24 10:10:00, 764547000.00, 0.016200, 0.044200, -0.083000
2024/03/24 10:15:00, 764547300.00, 0.018400, 0.047200, -0.082700
2024/03/24 10:20:00, 764547600.00, 0.012800, 0.045900, -0.081000
2024/03/24 10:25:00, 764547900.00, 0.014900, 0.048800, -0.081600
2024/03/24 10:30:00, 764548200.00, 0.007200, 0.047400, -0.093300
2024/03/24 10:35:00, 764548500.00, 0.024700, 0.051200, -0.074800
2024/03/24 10:40:00, 764548800.00, 0.018300, 0.038300, -0.071100
2024/03/24 10:45:00, 764549100.00, 0.018800, 0.046200, -0.069600
2024/03/24 10:50:00, 764549400.00, 0.003500, 0.045300, -0.119600
2024/03/24 10:55:00, 764549700.00, 0.014600, 0.043300, -0.080900
2024/03/24 11:00:00, 764550000.00, 0.018300, 0.044300, -0.084100
2024/03/24 11:05:00, 764550300.00, 0.029800, 0.051900, -0.090900
2024/03/24 11:10:00, 764550600.00, 0.021400, 0.051300, -0.065600
2024/03/24 11:15:00, 764550900.00, 0.013000, 0.049400, -0.106700
2024/03/24 11:20:00, 764551200.00, 0.025300, 0.052600, -0.076900
2024/03/24 11:25:00, 764551500.00, 0.022300, 0.049900, -0.086600
2024/03/24 11:30:00, 764551800.00, 0.018400, 0.055800, -0.073100
2024/03/24 11:35:00, 764552100.00, 0.015200, 0.055400, -0.099300
2024/03/24 11:40:00, 764552400.00, 0.023700, 0.047700, -0.076600
2024/03/24 11:45:00, 764552700.00, 0.019000, 0.048600, -0.092100
2024/03/24 11:50:00, 764553000.00, 0.019100, 0.057400, -0.082800
2024/03/24 11:55:00, 764553300.00, 0.014400, 0.053600, -0.092400
2024/03/24 12:00:00, 764553600.00, 0.018600, 0.047300, -0.074100
2024/03/24 12:05:00, 764553900.00, 0.019900, 0.053300, -0.104100
2024/03/24 12:10:00, 764554200.00, 0.017500, 0.050700, -0.107600
2024/03/24 12:15:00, 764554500.00, 0.030900, 0.055400, -0.098000
2024/03/24 12:20:00, 764554800.00, 0.024300, 0.051200, -0.100700
2024/03/24 12:25:00, 764555100.00, 0.017300, 0.047900, -0.081900
2024/03/24 12:30:00, 764555400.00, 0.015500, 0.047800, -0.089300
2024/03/24 12:35:00, 764555700.00, 0.009500, 0.051000, -0.084500
2024/03/24 12:40:00, 764556000.00, 0.017600, 0.040000, -0.101500
2024/03/24 12:45:00, 764556300.00, 0.000400, 0.044700, -0.081200
2024/03/24 12:50:00, 764556600.00, 0.022600, 0.046200, -0.104800
2024/03/24 12:55:00, 764556900.00, 0.012200, 0.048200, -0.083100
2024/03/24 13:00:00, 764557200.00, 0.016300, 0.049800, -0.076200
2024/03/24 13:05:00, 764557500.00, 0.014800, 0.052000, -0.074600
2024/03/24 13:10:00, 764557800.00, 0.022000, 0.051100, -0.081700
2024/03/24 13:15:00, 764558100.00, 0.022600, 0.047300, -0.084600
2024/03/24 13:20:00, 764558400.00, 0.013200, 0.047100, -0.077700
2024/03/24 13:25:00, 764558700.00, 0.027100, 0.055800, -0.083000
2024/03/24 13:30:00, 764559000.00, 0.035100, 0.055000, -0.076300
2024/03/24 13:35:00, 764559300.00, 0.017400, 0.045000, -0.074700
2024/03/24 13:40:00, 764559600.00, 0.026000, 0.047300, -0.085800
2024/03/24 13:45:00, 764559900.00, 0.028200, 0.054600, -0.085300
2024/03/24 13:50:00, 764560200.00, 0.023800, 0.050600, -0.090400
2024/03/24 13:55:00, 764560500.00, 0.021400, 0.051300, -0.086700
2024/03/24 14:00:00, 764560800.00, 0.029000, 0.057100, -0.092700
2024/03/24 14:05:00, 764561100.00, 0.038300, 0.055500, -0.084700
2024/03/24 14:10:00, 764561400.00, 0.032800, 0.052200, -0.079900
2024/03/24 14:15:00, 764561700.00, 0.032200, 0.052700, -0.090700
2024/03/24 14:20:00, 764562000.00, 0.033300, 0.061400, -0.089700
2024/03/24 14:25:00, 764562300.00, 0.029100, 0.058400, -0.072300
2024/03/24 14:30:00, 764562600.00, 0.026900, 0.054400, -0.079900
2024/03/24 14:35:00, 764562900.00, 0.031200, 0.054700, -0.078100
2024/03/24 14:40:00, 764563200.00, 0.029700, 0.062700, -0.078400
2024/03/24 14:45:00, 764563500.00, 0.022800, 0.059300, -0.096100
2024/03/24 14:50:00, 764563800.00, 0.028700, 0.061700, -0.087300
2024/03/24 14:55:00, 764564100.00, 0.017900, 0.064200, -0.088000
2024/03/24 15:00:00, 764564400.00, 0.019600, 0.063000, -0.083700
2024/03/24 15:05:00, 764564700.00, 0.028900, 0.064200, -0.079800
2024/03/24 15:10:00, 764565000.00, 0.026400, 0.057600, -0.094000
2024/03/24 15:15:00, 764565300.00, 0.021400, 0.063400, -0.102300
2024/03/24 15:20:00, 764565600.00, 0.030000, 0.063500, -0.097000
2024/03/24 15:25:00, 764565900.00, 0.017100, 0.062700, -0.083000
2024/03/24 15:30:00, 764566200.00, 0.024400, 0.056100, -0.088100
2024/03/24 15:35:00, 764566500.00, 0.025100, 0.064500, -0.080500
2024/03/24 15:40:00, 764566800.00, 0.022400, 0.062300, -0.075000
2024/03/24 15:45:00, 764567100.00, 0.018200, 0.060600, -0.089500
2024/03/24 15:50:00, 764567400.00, 0.020700, 0.063300, -0.079500
2024/03/24 15:55:00, 764567700.00, 0.026200, 0.059500, -0.074900
2024/03/24 16:00:00, 764568000.00, 0.017600, 0.054100, -0.109100
2024/03/24 16:05:00, 764568300.00, 0.024300, 0.064800, -0.082900
2024/03/24 16:10:00, 764568600.00, 0.024900, 0.062300, -0.086300
2024/03/24 16:15:00, 764568900.00, 0.020100, 0.059300, -0.085500
2024/03/24 16:20:00, 764569200.00, 0.020900, 0.061300, -0.081100
2024/03/24 16:25:00, 764569500.00, 0.020400, 0.061200, -0.091900
2024/03/24 16:30:00, 764569800.00, 0.022900, 0.060300, -0.089700
2024/03/24 16:35:00, 764570100.00, 0.030900, 0.060000, -0.087000
2024/03/24 16:40:00, 764570400.00, 0.030000, 0.062300, -0.085800
2024/03/24 16:45:00, 764570700.00, 0.031300, 0.061900, -0.092800
2024/03/24 16:50:00, 764571000.00, 0.029800, 0.061200, -0.090700
2024/03/24 16:55:00, 764571300.00, 0.033700, 0.057200, -0.105800
2024/03/24 17:00:00, 764571600.00, 0.030600, 0.060300, -0.083700
2024/03/24 17:05:00, 764571900.00, 0.024000, 0.059600, -0.088700
2024/03/24 17:10:00, 764572200.00, 0.019300, 0.062800, -0.092700
2024/03/24 17:15:00, 764572500.00, 0.025000, 0.051400, -0.108100
2024/03/24 17:20:00, 764572800.00, 0.021000, 0.051200, -0.104300
2024/03/24 17:25:00, 764573100.00, 0.017800, 0.054700, -0.105800
2024/03/24 17:30:00, 764573400.00, 0.023700, 0.058900, -0.111600
2024/03/24 17:35:00, 764573700.00, 0.026000, 0.057900, -0.106100
2024/03/24 17:40:00, 764574000.00, 0.025700, 0.053000, -0.102100
2024/03/24 17:45:00, 764574300.00, 0.029900, 0.058200, -0.116600
2024/03/24 17:50:00, 764574600.00, 0.023500, 0.052000, -0.120800
2024/03/24 17:55:00, 764574900.00, 0.016000, 0.058300, -0.120800
2024/03/24 18:00:00, 764575200.00, 0.023500, 0.053400, -0.118100
2024/03/24 18:05:00, 764575500.00, 0.018900, 0.058900, -0.109400
2024/03/24 18:10:00, 764575800.00, 0.017500, 0.055400, -0.090800
2024/03/24 18:15:00, 764576100.00, 0.023200, 0.052200, -0.107200
2024/03/24 18:20:00, 764576400.00, 0.026200, 0.055500, -0.102200
2024/03/24 18:25:00, 764576700.00, 0.028400, 0.051700, -0.109600
2024/03/24 18:30:00, 764577000.00, 0.026500, 0.057800, -0.087300
2024/03/24 18:35:00, 764577300.00, 0.019500, 0.055300, -0.102500
2024/03/24 18:40:00, 764577600.00, 0.027100, 0.044400, -0.092800
2024/03/24 18:45:00, 764577900.00, 0.025100, 0.049900, -0.088000
2024/03/24 18:50:00, 764578200.00, 0.021300, 0.053700, -0.094500
2024/03/24 18:55:00, 764578500.00, 0.018400, 0.046100, -0.079500
2024/03/24 19:00:00, 764578800.00, 0.022100, 0.052900, -0.107500
2024/03/24 19:05:00, 764579100.00, 0.017600, 0.044600, -0.100500
2024/03/24 19:10:00, 764579400.00, 0.021100, 0.049400, -0.109400
2024/03/24 19:15:00, 764579700.00, 0.025400, 0.049500, -0.088500
2024/03/24 19:20:00, 764580000.00, 0.025700, 0.052600, -0.095700
2024/03/24 19:25:00, 764580300.00, 0.026600, 0.053100, -0.099600
2024/03/24 19:30:00, 764580600.00, 0.032000, 0.045800, -0.082400
2024/03/24 19:35:00, 764580900.00, 0.022300, 0.046800, -0.084700
2024/03/24 19:40:00, 764581200.00, 0.040800, 0.049300, -0.078600
2024/03/24 19:45:00, 764581500.00, 0.041800, 0.051200, -0.093700
2024/03/24 19:50:00, 764581800.00, 0.035800, 0.052700, -0.080900
2024/03/24 19:55:00, 764582100.00, 0.026400, 0.050500, -0.096400
2024/03/24 20:00:00, 764582400.00, 0.002100, 0.042400, -0.098300
2024/03/24 20:05:00, 764582700.00, -0.004900, 0.053600, -0.145400
2024/03/24 20:10:00, 764583000.00, 0.008700, 0.053400, -0.072100
2024/03/24 20:15:00, 764583300.00, -0.010200, 0.045500, -0.139500
2024/03/24 20:20:00, 764583600.00, 0.003700, 0.043600, -0.041500
2024/03/24 20:25:00, 764583900.00, 0.011500, 0.053500, -0.066900
2024/03/24 20:30:00, 764584200.00, -0.005500, 0.042300, -0.053300
2024/03/24 20:35:00, 764584500.00, 0.012600, 0.041400, -0.051400
2024/03/24 20:40:00, 764584800.00, 0.010300, 0.047100, -0.062300
2024/03/24 20:45:00, 764585100.00, 0.022600, 0.049000, -0.064700
2024/03/24 20:50:00, 764585400.00, 0.010000, 0.048100, -0.071700
2024/03/24 20:55:00, 764585700.00, 0.013000, 0.047200, -0.068500
2024/03/24 21:00:00, 764586000.00, 0.014900, 0.054100, -0.083800
2024/03/24 21:05:00, 764586300.00, 0.018300, 0.055200, -0.080100
2024/03/24 21:10:00, 764586600.00, 0.021700, 0.046600, -0.079100
2024/03/24 21:15:00, 764586900.00, 0.021800, 0.060900, -0.079000
2024/03/24 21:20:00, 764587200.00, 0.007400, 0.060600, -0.062400
2024/03/24 21:25:00, 764587500.00, 0.007700, 0.052700, -0.073200
2024/03/24 21:30:00, 764587800.00, 0.000000, 0.057500, -0.076500
2024/03/24 21:35:00, 764588100.00, 0.004100, 0.042100, -0.063800
2024/03/24 21:40:00, 764588400.00, 0.014200, 0.049000, -0.083800
2024/03/24 21:45:00, 764588700.00, 0.013900, 0.053200, -0.077700
2024/03/24 21:50:00, 764589000.00, 0.014800, 0.050100, -0.063300
2024/03/24 21:55:00, 764589300.00, 0.011100, 0.049800, -0.084500
2024/03/24 22:00:00, 764589600.00, 0.013700, 0.050700, -0.083300
2024/03/24 22:05:00, 764589900.00, 0.022100, 0.060300, -0.102500
2024/03/24 22:10:00, 764590200.00, 0.013400, 0.065200, -0.115900
2024/03/24 22:15:00, 764590500.00, 0.004300, 0.054000, -0.083900
2024/03/24 22:20:00, 764590800.00, 0.009200, 0.060200, -0.092300
2024/03/24 22:25:00, 764591100.00, 0.006800, 0.057300, -0.088600
2024/03/24 22:30:00, 764591400.00, 0.001400, 0.054800, -0.116400
2024/03/24 22:35:00, 764591700.00, -0.002900, 0.041500, -0.110800
2024/03/24 22:40:00, 764592000.00, 0.001200, 0.065200, -0.071100
2024/03/24 22:45:00, 764592300.00, 0.001800, 0.062200, -0.088400
2024/03/24 22:50:00, 764592600.00, 0.001200, 0.056000, -0.058500
2024/03/24 22:55:00, 764592900.00, 0.014800, 0.055900, -0.046300
2024/03/24 23:00:00, 764593200.00, 0.016600, 0.055200, -0.037500
2024/03/24 23:05:00, 764593500.00, 0.027200, 0.063900, -0.020400
2024/03/24 23:10:00, 764593800.00, 0.016900, 0.067600, -0.055200
2024/03/24 23:15:00, 764594100.00, 0.036000, 0.065600, -0.007800
2024/03/24 23:20:00, 764594400.00, 0.025500, 0.069100, -0.039300
2024/03/24 23:25:00, 764594700.00, 0.025100, 0.061600, -0.062600
2024/03/24 23:30:00, 764595000.00, 0.013900, 0.060400, -0.076500
2024/03/24 23:35:00, 764595300.00, 0.015700, 0.057300, -0.083600
2024/03/24 23:40:00, 764595600.00, 0.020000, 0.063500, -0.082400
2024/03/24 23:45:00, 764595900.00, 0.017600, 0.062100, -0.086200
2024/03/24 23:50:00, 764596200.00, 0.015500, 0.069000, -0.070000
2024/03/24 23:55:00, 764596500.00, 0.014400, 0.059600, -0.075900
